Weather in Juneau

United States     58°21′38″N   134°30′47″W
В апреле 2022 года жителям России запретили посещать сайт meteo.paraplan.net по решению Генеральной прокуратуры. Аудитория сайта уменьшилась в 10 раз. Владельцы сайта не видят смысла в поддержке погодного сервера в таких условиях. Сайт будет закрыт в октябре.
temp.,
°C
wind,
m/s
gust,
m/s
humid.,
%
clouds,
%
prec.,
mm/h
press.,
hPa
HPBL,
m
4 october, tue
tue401:00+5ne117582 0.0 101912
04:00+5ne1169100 0.0 101713
07:00+6ene2268100 0.0 101622
10:00+8ene2271100 0.0 101578
13:00+10ene2370100 0.0 1014129
16:00+10e3374100 0.0 1014129
19:00+8ene2377100 0.1 101443
22:00+8ene3271100 0.2 101444
5 october, wed
wed501:00+8e2271100 0.0 101636
04:00+7e2283100 1.1 101749
07:00+8e2282100 1.5 101847
10:00+8e2378100 1.6 101950
13:00+8e2385100 1.0 102162
16:00+8e2391100 2.8 102485
19:00+8e1197100 3.9 102653
22:00+9ese1197100 4.9 102818
6 october, thu
thu601:00+9nne009898 0.1 102912
04:00+9ene119725 0.1 102914
07:00+7nne119781 0.0 102911
10:00+11nw118831 0.0 1029161
13:00+13wnw117962 0.0 1029438
16:00+12nw128488 0.0 1028204
19:00+8nw229471 0.0 102832
22:00+7nw2291100 0.0 102722
7 october, fri
fri701:00+7nw229199 0.0 102723
04:00+6nw119099 0.0 102720
07:00+6nnw1185100 0.0 102713
10:00+10nw118056 0.0 1027129
13:00+13w116731 0.0 1026418
16:00+12wnw1167100 0.0 1025321
19:00+8nne1187100 0.0 102611
22:00+9e0181100 0.0 102710
8 october, sat
sat801:00+8ne1182100 0.0 102710
04:00+9n0080100 0.0 102610
07:00+9ene1184100 0.0 102621
10:00+9e128499 0.1 1026103
13:00+10e1285100 0.0 1025135
16:00+10e228896 0.0 1023123
19:00+9e2390100 0.0 102287
22:00